User: anonymous   Login
Location: Karaa?a�
(36.7158°N, 30.4165°E)
Time: 10:23:17
(UTC+00:00)
Language:

Resurs 01 Rocket - Orbit

View from above orbital plane
View from above orbital plane
View from above satellite
View from above satellite

Ground track
Ground track

The orbit data is extracted from the following two-line orbital elements,

1 23343U 94074B   20183.75393199 -.00000017 +00000-0 +48792-5 0  9993
2 23343 097.9979 236.6278 0008293 102.7215 036.7029 14.76827795380522
Epoch (UTC): 01 July 2020 18:05:39
Eccentricity: 0.0008293
inclination: 97.9979°
perigee height: 633 km
apogee height: 645 km
right ascension of ascending node: 236.6278°
argument of perigee: 102.7215°
revolutions per day: 14.76827795
mean anomaly at epoch: 36.7029°
orbit number at epoch: 38052

The dashed part of the orbit path shows where the satellite is in the earth's shadow,  

DLR